Leesburg, FL

12:53 AM EST on December 08, 2019 (GMT -0500)
Leesburg Regional

Weather History for KLEE - October, 2019

Change the Weather History Date:

Friday, October 11, 2019

  Actual Average Record
Temperature  
Mean Temperature 79 °F -  
Max Temperature 91 °F 84 °F 93 °F (2017)
Min Temperature 68 °F 64 °F 50 °F (1971)
Cooling Degree Days 14    
Growing Degree Days 29 (Base 50)    
Moisture  
Dew Point 64 °F    
Average Humidity 64    
Maximum Humidity 90    
Minimum Humidity 34    
Precipitation  
Precipitation 0.00 in - - ()
Sea Level Pressure  
Sea Level Pressure 30.02 in    
Wind  
Wind Speed 7 mph (NE)    
Max Wind Speed 12 mph    
Max Gust Speed 20 mph    
Visibility 10 miles    
Events      
Averages and records for this station are not official NWS values.
T = Trace of Precipitation, MM = Missing Value Source: NWS Daily Summary

Daily Weather History Graph

Daily Weather History Graph

Search for Another Location

Airport or City:

Astronomy

Oct. 11, 2019 Rise Set
Actual Time 7:25 AM EDT 7:01 PM EDT
Civil Twilight 7:01 AM EDT 7:25 PM EDT
Nautical Twilight 6:34 AM EDT 7:52 PM EDT
Astronomical Twilight 6:07 AM EDT 8:20 PM EDT
Moon 6:15 PM EDT (10/11) 5:22 AM EDT (10/11)
Length of Visible Light 12h 23m
Length of Day
11h 36m
Waxing Gibbous, 96% of the Moon is Illuminated
Oct 11
Waxing Gibbous
Oct 13
Full
Oct 21
Last Quarter
Oct 27
New
Nov 4
First Quarter

Hourly Weather History & Observations

Time (EDT) Temp. Heat Index Dew Point Humidity Pressure Visibility Wind Dir Wind Speed Gust Speed Precip Events Conditions
12:53 AM 73.0 °F - 68.0 °F 84% 30.03 in 10.0 mi NNE 6.9 mph - N/A   Clear
1:53 AM 73.0 °F - 68.0 °F 84% 30.02 in 10.0 mi North 3.5 mph - N/A   Partly Cloudy
2:53 AM 71.1 °F - 68.0 °F 90% 30.01 in 10.0 mi North 6.9 mph - N/A   Clear
3:53 AM 71.1 °F - 66.9 °F 87% 29.99 in 10.0 mi North 6.9 mph - N/A   Clear
4:53 AM 70.0 °F - 66.9 °F 90% 29.99 in 10.0 mi NNE 5.8 mph - N/A   Clear
5:53 AM 70.0 °F - 66.0 °F 87% 30.01 in 10.0 mi NNE 6.9 mph - N/A   Clear
6:53 AM 68.0 °F - 64.9 °F 90% 30.02 in 10.0 mi NE 5.8 mph - N/A   Clear
7:53 AM 70.0 °F - 64.9 °F 84% 30.02 in 10.0 mi NE 6.9 mph - N/A   Clear
8:53 AM 75.9 °F - 66.0 °F 71% 30.04 in 10.0 mi North 8.1 mph - N/A   Clear
9:53 AM 79.0 °F - 66.0 °F 64% 30.06 in 10.0 mi NNE 9.2 mph - N/A   Clear
10:53 AM 82.9 °F 84.4 °F 64.0 °F 53% 30.06 in 10.0 mi ENE 10.4 mph 19.6 mph N/A   Clear
11:53 AM 87.1 °F 88.3 °F 64.0 °F 46% 30.06 in 10.0 mi North - - N/A   Clear
12:53 PM 87.1 °F 87.8 °F 63.0 °F 44% 30.04 in 10.0 mi NNE 11.5 mph - N/A   Clear
1:53 PM 90.0 °F 90.0 °F 61.0 °F 38% 30.02 in 10.0 mi Variable 5.8 mph 18.4 mph N/A   Partly Cloudy
2:53 PM 90.0 °F 89.7 °F 60.1 °F 37% 30.00 in 10.0 mi ENE 8.1 mph - N/A   Clear
3:53 PM 90.0 °F 88.8 °F 57.9 °F 34% 29.99 in 10.0 mi NE 11.5 mph - N/A   Partly Cloudy
4:53 PM 88.0 °F 86.9 °F 57.9 °F 36% 29.99 in 10.0 mi NE 6.9 mph - N/A   Clear
5:53 PM 86.0 °F 85.0 °F 57.9 °F 38% 29.99 in 10.0 mi NE 10.4 mph - N/A   Partly Cloudy
6:53 PM 81.0 °F 81.9 °F 62.1 °F 52% 30.01 in 10.0 mi ENE 8.1 mph - N/A   Clear
7:53 PM 79.0 °F - 64.0 °F 60% 30.01 in 10.0 mi ENE 9.2 mph - N/A   Clear
8:53 PM 77.0 °F - 63.0 °F 62% 30.03 in 10.0 mi ENE 9.2 mph - N/A   Clear
9:53 PM 73.9 °F - 62.1 °F 66% 30.06 in 10.0 mi NE 6.9 mph - N/A   Clear
10:53 PM 73.0 °F - 64.0 °F 73% 30.06 in 10.0 mi NE 8.1 mph - N/A   Clear
11:53 PM 72.0 °F - 63.0 °F 73% 30.06 in 10.0 mi NE 6.9 mph - N/A   Clear